GORIZONT 17 [-]

Last updated on Sept. 19, 2020, 5:46 a.m. UTC

1 19765U 89004A   20262.22003420 -.00000249  00000-0  00000-0 0  9990
2 19765  14.5222 349.1527 0021237 109.9057 322.7655  0.99068973114796
UTC
Height (km)
Latitude
Longitude
Inclination
Orbital Period
UTC large
Height (km)
Speed (km/s)
/
Latitude / Longitude
Inclination (degrees)
Orbital Period (minutes)
Azimuth
Elevation
Range (km)
Doppler Factor
iOS Compass Heading
iOS Angle

Next 30 passes for location: Hong Kong

Rise time Rise Azimuth (degrees) Set time Set Azimuth (degrees) Duration Max altitude (degrees)

No matching passes for this satellites